Location: Unspecified
(0.0000°N, 0.0000°E)
Time: 23:24:59
(UTC+00:00)

DSAT - Pass Details

Date: 10 June 2023
Orbit: 498 x 655 km, 97.5° (Epoch: 28 September)

Event Time Altitude Azimuth Distance (km) Brightness Sun altitude
Rises 04:47:55 0° 14° (NNE) 2,982 ? -16.4°
Reaches altitude 10° 04:50:09 10° 16° (NNE) 2,067 ? -15.9°
Maximum altitude 04:54:41 73° 101° (ESE) 678 ? -14.9°
Drops below altitude 10° 04:59:05 10° 186° (S) 2,016 ? -13.9°
Enters shadow 05:01:02 - 187° (S) 2,816 ? -13.4°
